Tracking 19638 objects as of 21-Apr-2019
HD Live streaming from Space Station
objects crossing your sky now

SL-14 DEB

Track SL-14 DEB now!
10-day predictions


NORAD ID: 39970
Int'l Code: 1987-068CW
Perigee: 869.0 km
Apogee: 879.2 km
Inclination: 82.5 °
Period: 102.3 minutes
Semi major axis: 7245 km
RCS: 0.0124 m2 (small)
Launch date: August 18, 1987
Source: Commonwealth of Independent States (former USSR) (CIS)
Launch site: PLESETSK MISSILE AND SPACE COMPLEX (PKMTR)

Note: This is SATELLITE DEBRIS
aabbcc
Your satellite tracking list
Your tracking list is empty




NASA's NSSDC Master Catalog

Two Line Element Set (TLE):
1 39970U 87068CW  19104.18250955  .00000667  00000-0  38476-3 0  9997
2 39970  82.5439  66.3440 0007042 115.7820 244.4080 14.07785591759540
Source of the keplerian elements: AFSPC